This is the latest recevied weather packets stored in our database for station/object WA1NHP. If no packets are shown the sender has not sent any weather packets the latest 10 day(s).
| Time | Temp. | Humidity | Pressure | Rain* | Wind** | Luminosity | Snow |
|---|---|---|---|---|---|---|---|
| 1777427044 | 8.89° C | 36% | 1023.9 hPa | 0 mm | - | 0 W/m² | - |
| 1777426444 | 8.89° C | 42% | 1023.9 hPa | 0 mm | - | 0 W/m² | - |
| 1777425844 | 9.44° C | 43% | 1023.9 hPa | 0 mm | - | 0 W/m² | - |
| 1777425244 | 9.44° C | 45% | 1023.9 hPa | 0 mm | - | 0 W/m² | - |
| 1777424645 | 9.44° C | 45% | 1023.9 hPa | 0 mm | - | 0 W/m² | - |
| 1777424044 | 10° C | 45% | 1023.9 hPa | 0 mm | - | 0 W/m² | - |
| 1777423444 | 10° C | 45% | 1023.9 hPa | 0 mm | - | 0 W/m² | - |
| 1777422844 | 10° C | 47% | 1023.9 hPa | 0 mm | - | 0 W/m² | - |
| 1777422244 | 10.56° C | 47% | 1023.9 hPa | 0 mm | - | 0 W/m² | - |
| 1777421644 | 10.56° C | 48% | 1023.9 hPa | 0 mm | - | 0 W/m² | - |
| 1777421044 | 10.56° C | 47% | 1023.9 hPa | 0 mm | - | 0 W/m² | - |
| 1777420444 | 11.11° C | 47% | 1023.9 hPa | 0 mm | - | 0 W/m² | - |
| 1777419844 | 11.11° C | 48% | 1023.9 hPa | 0 mm | - | 0 W/m² | - |
| 1777419244 | 11.67° C | 47% | 1023.9 hPa | 0 mm | - | 5 W/m² | - |
| 1777418643 | 12.22° C | 47% | 1023.9 hPa | 0 mm | - | 11 W/m² | - |
| 1777418044 | 12.78° C | 48% | 1023.9 hPa | 0 mm | - | 25 W/m² | - |
| 1777417443 | 13.33° C | 50% | 1023.9 hPa | 0 mm | - | 35 W/m² | - |
| 1777416844 | 13.33° C | 50% | 1023.9 hPa | 0 mm | - | 47 W/m² | - |
| 1777416245 | 13.89° C | 51% | 1023.9 hPa | 0 mm | - | 65 W/m² | - |
| 1777415644 | 14.44° C | 49% | 1023.9 hPa | 0 mm | - | 74 W/m² | - |
| 1777415044 | 15° C | 48% | 1023.9 hPa | 0 mm | - | 84 W/m² | - |
| 1777414444 | 15° C | 47% | 1023.9 hPa | 0 mm | - | 93 W/m² | - |
| 1777413844 | 15.56° C | 47% | 1023.9 hPa | 0 mm | - | 98 W/m² | - |
| 1777413244 | 16.11° C | 46% | 1023.9 hPa | 0 mm | - | 111 W/m² | - |
| 1777412644 | 16.11° C | 45% | 1023.9 hPa | 0 mm | - | 127 W/m² | - |
* Rain latest hour (hover to see other rain measurements)
** Current wind speed in m/s (hover to see current wind gust speed)